GW4714 Weather Reports


Display with metric or nautical units.
time (UTC)temp
F
wind
direction
speed
MPH
gust
MPH
rain 1hr
in
rain 24hr
in
rain mn
in
humidity
%
barometer
mb
20260508134557 59 0 0.0 0.0 0.00 0.07 0.00 53 1018.3
20260508133104 58 0 0.0 0.0 0.00 0.07 0.00 55 1018.1
20260508131600 58 0 0.0 0.0 0.00 0.07 0.00 56 1018.0
20260508130111 58 0 0.0 0.0 0.00 0.07 0.00 66 1018.0
20260508124558 55 0 0.0 0.0 0.00 0.15 0.00 72 1018.0
20260508123100 52 0 0.0 0.0 0.00 0.15 0.00 80 1017.9
20260508121631 50 0 0.0 0.0 0.00 0.15 0.00 84 1017.8
20260508120056 47 0 0.0 0.0 0.00 0.15 0.00 87 1017.6
20260508114558 46 0 0.0 0.0 0.00 0.26 0.00 88 1017.4
20260508113104 45 0 0.0 0.0 0.00 0.26 0.00 89 1017.2
20260508111610 44 0 0.0 0.0 0.00 0.26 0.00 89 1017.0
20260508110059 44 0 0.0 0.0 0.00 0.26 0.00 90 1016.8
20260508104604 44 0 0.0 0.0 0.00 0.26 0.00 89 1016.6
20260508103058 44 0 0.0 0.0 0.00 0.26 0.00 89 1016.3
20260508101602 45 0 0.0 0.0 0.00 0.26 0.00 88 1016.2
20260508100058 45 0 0.0 0.0 0.00 0.26 0.00 89 1016.1
20260508094603 46 0 0.0 0.0 0.00 0.26 0.00 88 1016.0
20260508093057 45 0 0.0 0.0 0.00 0.26 0.00 90 1015.9
20260508091605 45 0 0.0 0.0 0.00 0.26 0.00 91 1015.8
20260508090113 45 0 0.0 0.0 0.00 0.26 0.00 91 1015.6
20260508084558 45 0 0.0 0.0 0.00 0.26 0.00 91 1015.6
20260508083055 45 0 0.0 0.0 0.00 0.26 0.00 91 1015.5
20260508081609 46 0 0.0 0.0 0.00 0.26 0.00 90 1015.4
20260508080057 47 0 0.0 0.0 0.00 0.26 0.00 89 1015.4
20260508074557 47 0 0.0 0.0 0.00 0.26 0.00 90 1015.4
20260508073107 46 0 0.0 0.0 0.00 0.26 0.00 90 1015.2
20260508071623 47 0 0.0 0.0 0.00 0.26 0.00 90 1015.1
20260508064556 47 0 0.0 0.0 0.00 0.29 0.00 90 1014.8
20260508063055 48 0 0.0 0.0 0.00 0.29 0.00 88 1014.8
20260508061557 47 0 0.0 0.0 0.00 0.29 0.00 89 1014.8
20260508060055 48 0 0.0 0.0 0.00 0.29 0.00 88 1015.0
20260508054609 48 0 0.0 0.0 0.00 0.32 0.00 88 1014.9
20260508053058 49 0 0.0 0.0 0.00 0.32 0.00 87 1014.7
20260508051556 50 0 0.0 0.0 0.00 0.32 0.00 85 1014.6
20260508050054 50 0 0.0 0.0 0.00 0.32 0.00 85 1014.5
20260508044600 51 0 0.0 0.0 0.00 0.35 0.00 82 1014.3
20260508043056 51 0 0.0 0.0 0.00 0.35 0.00 83 1014.3
20260508041556 51 0 0.0 0.0 0.00 0.35 0.00 84 1014.3
20260508040100 51 0 0.0 0.0 0.00 0.35 0.00 85 1014.2
20260508034555 51 0 0.0 0.0 0.00 0.35 0.35 82 1014.3
20260508033115 52 0 0.0 0.0 0.00 0.35 0.35 80 1014.3
20260508031554 53 0 0.0 0.0 0.00 0.35 0.35 79 1014.2
20260508030108 52 0 0.0 0.0 0.00 0.35 0.35 79 1014.2
20260508024619 52 0 0.0 0.0 0.00 0.42 0.35 80 1013.9
20260508023100 52 0 0.0 0.0 0.00 0.42 0.35 80 1013.7
20260508021555 53 0 0.0 0.0 0.00 0.42 0.35 78 1013.6
20260508020109 55 0 0.0 0.0 0.00 0.42 0.35 73 1013.3
20260508014616 56 0 0.0 0.0 0.00 0.45 0.35 71 1013.1
20260508013107 56 0 0.0 0.0 0.00 0.45 0.35 69 1012.9
20260508011601 58 0 0.0 0.0 0.00 0.45 0.35 66 1012.5
20260508010115 58 0 0.0 0.0 0.00 0.45 0.35 64 1012.3
20260508004558 59 0 0.0 2.0 0.00 0.51 0.35 63 1012.3
20260508003100 59 0 0.0 7.0 0.00 0.51 0.35 63 1012.0
20260508001602 60 0 0.0 3.0 0.00 0.51 0.35 64 1012.0
20260508000058 62 320 1.0 4.0 0.00 0.51 0.35 62 1012.2
20260507234558 63 0 1.0 10.0 0.00 0.54 0.35 62 1012.1
20260507233056 63 0 1.0 9.0 0.00 0.54 0.35 64 1011.8
20260507231557 65 292 1.0 10.0 0.00 0.54 0.35 65 1011.5
20260507230104 65 0 0.0 8.0 0.00 0.54 0.35 69 1011.2
20260507224609 66 0 0.0 4.0 0.00 0.54 0.35 78 1010.8
20260507223059 66 0 0.0 0.0 0.00 0.54 0.35 81 1010.6
20260507221604 65 0 0.0 3.0 0.00 0.54 0.35 82 1010.1
20260507220100 65 0 0.0 1.0 0.00 0.54 0.35 82 1009.8
20260507214558 64 0 0.0 4.0 0.00 0.54 0.35 84 1009.9
20260507213101 64 0 0.0 6.0 0.00 0.54 0.35 83 1009.7
20260507211557 64 0 0.0 2.0 0.00 0.54 0.35 83 1009.5
20260507210058 65 0 0.0 10.0 0.00 0.54 0.35 83 1009.2
20260507204555 66 0 0.0 8.0 0.00 0.54 0.35 83 1009.2
20260507203101 67 67 0.0 10.0 0.00 0.54 0.35 82 1008.8
20260507201559 67 63 4.0 12.0 0.00 0.54 0.35 82 1008.7
20260507200100 67 0 0.0 10.0 0.00 0.54 0.35 84 1008.7
20260507194558 66 0 3.0 15.0 0.02 0.54 0.35 85 1008.5
20260507193053 65 0 2.0 12.0 0.07 0.54 0.35 87 1008.6
20260507191602 69 63 2.0 11.0 0.07 0.54 0.35 85 1008.9
20260507190059 70 0 0.0 0.0 0.07 0.54 0.35 87 1008.5
20260507184554 71 0 0.0 1.0 0.05 0.52 0.33 83 1008.4
20260507183106 73 0 0.0 0.0 0.00 0.47 0.28 75 1008.6
20260507181556 74 0 0.0 8.0 0.00 0.47 0.28 72 1008.5
20260507180057 75 0 0.0 4.0 0.00 0.47 0.28 71 1008.4
20260507174601 75 0 0.0 4.0 0.00 0.47 0.28 73 1008.5
20260507173102 74 0 0.0 4.0 0.00 0.47 0.28 74 1008.7
20260507171558 74 292 0.0 6.0 0.00 0.47 0.28 74 1008.9
20260507170058 74 0 1.0 8.0 0.00 0.47 0.28 74 1009.2
20260507164556 73 0 0.0 4.0 0.00 0.50 0.28 77 1009.5
20260507163059 72 0 0.0 1.0 0.00 0.50 0.28 78 1009.7
20260507161558 71 0 0.0 1.0 0.00 0.50 0.28 80 1009.9
20260507160056 70 0 0.0 0.0 0.00 0.50 0.28 83 1009.6
20260507154602 68 0 0.0 0.0 0.00 0.52 0.28 86 1009.2
20260507153104 68 0 0.0 1.0 0.00 0.52 0.28 86 1009.4
20260507151555 67 0 0.0 1.0 0.00 0.52 0.28 89 1009.9
20260507150108 66 0 0.0 1.0 0.00 0.52 0.28 92 1009.9
20260507144556 65 0 0.0 0.0 0.00 0.52 0.28 94 1010.1
20260507143106 64 0 0.0 0.0 0.00 0.52 0.28 94 1010.2
20260507141559 64 0 0.0 0.0 0.00 0.52 0.28 94 1010.2
20260507140101 63 0 0.0 0.0 0.00 0.52 0.28 95 1009.9